COSMOS 1823 DEB, 18742

Orbit data source: Space-Track

COSMOS 1823 DEB, 18742 is space debris in LEO originally from a launch on Fri, 20 Feb 1987 UTC launched from the Plesetsk Missile And Space Complex (PKMTR). Debris objects in space refer to the collection of defunct objects orbiting the Earth. Examples of debris include non-operational satellites, rocket bodies, and fragments generated from explosions, collisions, or faulty payload assembly.

Loading next visibility...
Identifier
18742, 1987-020V
Orbit
LEO
Country
Flag of CISCIS
Related business
Manufacturer
Unknown
Mission
Spacecraft
Bus & Motor
Unknown
Mass
Unknown
Launch date (UTC)
1987-02-20 (39 years ago)
Launch vehicle
Unknown
Launch site
Plesetsk Missile And Space Complex (PKMTR)
Object type
Payload
Rocket body
Debris
Shape & HBR
Unknown shape, 0.1 m
Radar Cross Section
Medium (>0.1 m² and <1 m²)

Expand to show TLE details & history
Last TLE update: 2 days ago

TLE from 2 days ago
0 COSMOS 1823 DEB
1 18742U 87020V   26171.42466131  .00000351  00000-0  21401-2 0  9992
2 18742  73.5144 214.0668 0048225 130.5982 247.5331 12.59396492762240
Epoch: 2026-06-20T10:11Z
TLE epoch observation values (Epoch: 2026-06-20T10:11:30.737Z)
Latitude
16.86808°
Longitude
157.67212°
Altitude
1,441.734 km
Speed
7.136 km/s
True Right ascension
14h 36m 45s
True Declination
16° 46' 52"
Sunlit
Object was in daylight at epoch
Visualization orbit readout
Latitude
Unknown
Longitude
Unknown
Altitude
Unknown
Speed
Unknown
Apparent Right ascension
Unknown
Apparent Declination
Unknown
Sunlit
N/A
Visualization observer readout
Local Sidereal Time
06:36:10
Azimuth
Unknown
Elevation
Unknown
Doppler factor
Unknown
Orbital elements
Apogee altitude
1,460.924 km
Perigee altitude
1,385.679 km
Semi-major axis
7,801.438 km
Eccentricity
0.00482
Inclination
73.5144°
RAAN
214.0668°
Arg. of periapsis
130.5982°
True anomaly
247.02361°
Mean anomaly
247.5331°
Eccentric anomaly
247.27824°
Mean motion
3.14979 °/min
Orbital period
114.29 mins
BSTAR
0.0021401
Loading maneuver chart data...
Computing Atmospheric mass density...

Documentation

Showing up to 5 results
|